Location: Nassau
(25.0830°N, 77.3500°W)
Time: 13:27:39
(UTC-04:00)

ISS - All Passes

Search period start: 19 April 2014 00:00
Search period end: 29 April 2014 00:00
Orbit: 414 x 419 km, 51.6° (Epoch: 19 April)

Date Brightness Start Highest point End Pass type
(mag) Time Alt. Az. Time Alt. Az. Time Alt. Az.
19 Apr - 00:46:15 10° WNW 00:48:48 20° SW 00:51:20 10° S night (unlit)
19 Apr - 14:08:56 10° SSW 14:11:59 34° SE 14:15:02 10° ENE daylight
19 Apr - 15:47:01 10° WNW 15:48:46 14° NW 15:50:32 10° N daylight
19 Apr - 22:22:27 10° NNE 22:23:38 11° NE 22:24:49 10° ENE visible
19 Apr - 23:57:19 10° NW 00:00:30 43° SW 00:03:41 10° SSE night (unlit)
20 Apr - 13:21:31 10° SSE 13:23:40 16° SE 13:25:50 10° E daylight
20 Apr - 14:57:26 10° W 15:00:13 24° NW 15:03:01 10° NNE daylight
20 Apr - 23:08:46 10° NW 23:12:07 80° NE 23:15:26 10° SE night (unlit)
21 Apr - 14:08:27 10° SW 14:11:41 50° NW 14:14:56 10° NNE daylight
21 Apr - 22:20:29 10° NNW 22:23:35 35° NE 22:26:41 10° ESE visible
21 Apr - 23:59:07 10° WSW 00:00:00 11° SW 00:00:54 10° SW night (unlit)
22 Apr - 13:19:51 10° SSW 13:23:09 70° SE 13:26:28 10° NE daylight
22 Apr - 21:32:30 10° N 21:34:56 19° NE 21:37:22 10° E visible
22 Apr - 23:08:54 10° WNW 23:11:35 22° SW 23:14:15 10° S night (unlit)
23 Apr - 12:31:41 10° S 12:34:37 30° SE 12:37:35 10° ENE daylight
23 Apr - 14:09:23 10° WNW 14:11:22 15° NW 14:13:20 10° N daylight
23 Apr - 20:45:32 10° NNE 20:46:09 10° NE 20:46:45 10° NE visible
23 Apr - 22:19:48 10° NW 22:23:03 49° SW 22:26:16 10° SSE visible
24 Apr - 11:44:12 10° SSE 11:46:05 14° SE 11:47:59 10° E daylight
24 Apr - 13:19:42 10° WSW 13:22:35 27° NW 13:25:28 10° NNE daylight
24 Apr - 21:31:04 10° NW 21:34:24 70° NE 21:37:42 10° SE visible
25 Apr - 12:30:33 10° SW 12:33:49 58° NW 12:37:06 10° NNE daylight
25 Apr - 20:42:36 10° NNW 20:45:37 31° NE 20:48:38 10° ESE visible
25 Apr - 22:20:37 10° W 22:22:04 12° SW 22:23:31 10° SSW visible
26 Apr - 11:41:48 10° SSW 11:45:03 59° SE 11:48:20 10° NE daylight
26 Apr - 19:54:29 10° N 19:56:43 17° NE 19:58:57 10° E visible
26 Apr - 21:30:34 10° WNW 21:33:23 26° SW 21:36:12 10° S visible
27 Apr - 10:53:29 10° S 10:56:18 26° SE 10:59:07 10° ENE daylight
27 Apr - 12:30:46 10° W 12:32:58 16° NW 12:35:10 10° N daylight
27 Apr - 20:41:20 10° NW 20:44:36 58° SW 20:47:52 10° SSE visible
28 Apr - 10:06:04 10° SSE 10:07:32 12° SE 10:09:00 10° E daylight
28 Apr - 11:40:58 10° WSW 11:43:58 31° NW 11:46:58 10° NNE daylight
28 Apr - 19:52:25 10° NNW 19:55:42 58° NE 19:58:58 10° SE daylight
